Overview Statistics Trail Chart Weather Telemetry Raw packets
 

This is the latest recevied weather packets stored in our database for station/object K1BES. If no packets are shown the sender has not sent any weather packets the latest 10 day(s).

<< 96 97 98 99 100 101 102 >>
Time Temp. Humidity Pressure Rain* Wind** Luminosity Snow
1787929439 33.89° C 56% 1020.2 hPa 0 mm - 741 W/m² -
1787929136 33.89° C 56% 1020.5 hPa 0 mm - 724 W/m² -
1787928832 34.44° C 58% 1020.4 hPa 0 mm - 704 W/m² -
1787928531 33.89° C 57% 1020.3 hPa 0 mm - 689 W/m² -
1787928230 33.89° C 58% 1020.5 hPa 0 mm - 671 W/m² -
1787927929 34.44° C 56% 1020.4 hPa 0 mm - 654 W/m² -
1787927623 33.89° C 55% 1020.1 hPa 0 mm - 634 W/m² -
1787927319 33.89° C 56% 1020.3 hPa 0 mm - 613 W/m² -
1787927015 33.89° C 57% 1020.2 hPa 0 mm - 594 W/m² -
1787926714 33.89° C 56% 1020.1 hPa 0 mm - 576 W/m² -
1787926413 33.33° C 57% 1020 hPa 0 mm - 556 W/m² -
1787926108 33.33° C 56% 1020.3 hPa 0 mm - 537 W/m² -
1787925807 33.33° C 58% 1019.9 hPa 0 mm - 516 W/m² -
1787925507 32.78° C 58% 1020 hPa 0 mm - 497 W/m² -
1787925201 32.78° C 59% 1020.1 hPa 0 mm - 477 W/m² -
1787924900 32.22° C 60% 1020.1 hPa 0 mm - 458 W/m² -
1787924595 32.78° C 60% 1020.1 hPa 0 mm - 436 W/m² -
1787924290 32.22° C 60% 1020.1 hPa 0 mm - 416 W/m² -
1787923986 31.67° C 63% 1020.2 hPa 0 mm - 394 W/m² -
1787923686 31.67° C 65% 1019.7 hPa 0 mm - 374 W/m² -
1787923381 31.67° C 64% 1019.9 hPa 0 mm - 176 W/m² -
1787923075 31.67° C 65% 1019.9 hPa 0 mm - 163 W/m² -
1787922770 31.11° C 67% 1019.9 hPa 0 mm - 250 W/m² -
1787922469 30.56° C 68% 1019.6 hPa 0 mm - 225 W/m² -
1787922168 30.56° C 69% 1019.7 hPa 0 mm - 262 W/m² -

* Rain latest hour (hover to see other rain measurements)
** Current wind speed in m/s (hover to see current wind gust speed)